Terug naar catalogus

THOR 6

ActiefCommunicatieGEO
NORAD 36033·PAYLOAD·🇳🇴 Norway

Gelanceerd Oct 29, 2009 vanaf Guiana Space Centre

Loading…

TLE

VersSource: Space-Track

Epoch: Sep 14, 2026, 13:48 UTC

1 36033U 09058B   26257.57501435 -.00000017  00000-0  00000-0 0  9998
2 36033   0.0105 142.2442 0001745  33.5522  23.9257  1.00272621 61904

Volg THOR 6 in realtime met AllMySat

Download on the App Store